Probability
0 0 0 0 0 0 0 0 0 0 0 0 0 0 0 0 0 0 0 0 0 0 0 0 0 0 0 0 0 0 0 3 10 6 3 10 6 0 0 0 0 0 0 0
0 0 0 0 0 0 0 0 0 0 0 0 0 0 0 0 0 0 0 0 0 0 0 0 0 0 0 0 0 0 0 0 0 3 10 6 3 0 0 0 0 0 0 0
0 0 0 0 0 0 0 0 0 0 0 0 0 0 0 0 0 0 0 0 0 0 0 0 0 0 0 0 0 0 0 0 0 0 0 0 0 0 0 0 0 0 0 0
0 0 0 0 0 0 0 0 0 0 0 0 0 0 0 0 0 0 0 0 0 0 0 0 0 0 0 0 0 0 0 0 0 0 0 0 0 0 0 0 0 0 0 0
0 0 0 0 0 0 0 0 0 0 0 0 0 0 0 0 0 0 0 0 0 0 0 0 0 0 0 0 0 0 0 0 0 0 0 0 0 0 0 0 0 0 0 0
0 0 0 0 0 0 0 0 0 0 0 0 0 0 0 0 0 0 0 0 0 0 0 0 0 0 0 0 0 0 0 0 0 0 0 0 0 0 0 0 0 0 0 0
0 0 0 0 0 0 0 0 0 0 0 0 0 0 0 0 0 0 0 0 0 0 0 0 0 0 0 0 0 0 0 0 0 0 0 0 0 0 0 0 0 0 0 0
0 0 0 0 0 0 0 0 0 0 0 0 0 0 0 0 0 0 0 0 0 0 0 0 0 0 0 0 0 0 0 0 0 0 0 0 0 0 0 0 0 0 0 0
0 0 0 0 0 0 0 0 0 0 0 0 0 0 0 0 0 0 0 0 0 0 0 0 0 0 0 0 0 0 0 0 0 0 0 0 0 0 0 0 0 0 0 0
0 0 0 0 0 0 0 0 0 0 0 0 0 0 0 0 0 0 0 0 0 0 0 0 0 0 0 0 0 0 0 0 0 0 0 0 0 0 0 0 0 0 0 0
0 0 0 0 0 0 0 0 0 0 0 0 0 0 0 0 0 0 0 0 0 0 0 0 0 0 0 0 0 0 0 0 0 0 0 0 0 0 0 0 0 0 0 0
0 0 0 0 0 0 0 0 0 0 0 0 0 0 0 0 0 0 0 0 0 0 0 0 0 0 0 0 0 0 0 0 0 0 0 0 0 0 0 0 0 0 0 0
0 0 0 0 0 0 0 0 0 0 0 0 0 0 0 0 0 0 0 0 0 0 0 0 0 0 0 0 0 0 0 0 0 0 0 0 0 0 0 0 0 0 0 0
0 0 0 0 0 0 0 0 0 0 0 0 0 0 0 0 0 0 0 0 0 0 0 0 0 0 0 0 0 0 0 0 0 0 0 0 0 0 0 0 0 0 0 0
0 0 0 0 0 0 0 0 0 0 0 0 0 0 0 0 0 0 0 0 0 0 0 0 0 0 0 0 0 0 0 0 0 0 0 0 0 0 0 0 0 0 0 0
0 0 0 0 0 0 0 0 0 0 0 0 0 0 0 0 0 0 0 0 0 0 0 0 0 0 0 0 0 0 0 0 0 0 0 0 0 0 0 0 0 0 0 0
0 0 0 0 0 0 0 0 0 0 0 0 0 0 0 0 0 0 0 0 0 0 0 0 0 0 0 0 0 0 0 0 0 0 0 0 0 0 0 0 0 0 0 0
0 0 0 0 0 0 0 0 0 0 0 0 0 0 0 0 0 0 0 0 0 0 0 0 0 0 0 0 0 0 0 0 0 0 0 0 0 0 0 0 0 0 0 0
0 0 0 0 0 0 0 0 0 0 0 0 0 0 0 0 0 0 0 0 0 0 0 0 0 0 0 0 0 0 0 0 0 0 0 0 0 0 0 0 0 0 0 0
0 0 0 0 0 0 0 0 0 0 0 0 0 0 0 0 0 0 0 0 0 0 0 0 0 0 0 0 0 0 0 0 0 0 0 0 0 0 0 0 0 0 0 0
0 0 0 0 0 0 0 0 0 0 0 0 0 0 0 0 0 0 0 0 0 0 0 0 0 0 0 0 0 0 0 0 0 0 0 0 0 0 0 0 0 0 0 0
0 0 0 0 0 0 0 0 0 0 0 0 0 0 0 0 0 0 0 0 0 0 0 0 0 0 0 0 0 0 0 0 0 0 0 0 0 0 0 0 0 0 0 0
0 0 0 0 0 0 0 0 0 0 0 0 0 0 0 0 0 0 0 0 0 0 0 0 0 0 0 0 0 0 0 0 0 0 0 0 0 0 0 0 0 0 0 0
0 0 0 0 0 0 0 0 0 0 0 0 0 0 0 0 0 0 0 0 0 0 0 0 0 0 0 0 0 0 0 0 0 0 0 0 0 0 0 0 0 0 0 0
0 0 0 0 0 0 0 0 0 0 0 0 0 0 0 0 0 0 0 0 0 0 0 0 0 0 0 0 0 0 0 0 0 0 0 0 0 0 0 0 0 0 0 0
0 0 0 0 0 0 0 0 0 0 0 0 0 0 0 0 0 0 0 0 0 0 0 0 0 0 0 0 0 0 0 0 0 0 0 0 0 0 0 0 0 0 0 0
Height
5632 5642 5651 5661 5670 5677 5683 5690 5696 5702 5709 5716 5723 5729 5735 5742 5749 5755 5761 5766 5771 5776 5780 5784 5789 5792 5796 5798 5800 5802 5804 5805 5806 5807 5808 5809 5810 5810 5810 5809 5808 5808 5807 5806
5631 5640 5650 5657 5665 5671 5678 5685 5691 5696 5703 5711 5717 5723 5729 5735 5743 5749 5754 5759 5764 5769 5774 5778 5782 5786 5789 5791 5793 5795 5796 5798 5799 5800 5801 5801 5802 5802 5802 5802 5800 5799 5797 5796
5631 5641 5647 5655 5662 5669 5675 5682 5687 5692 5700 5706 5711 5717 5723 5730 5736 5743 5748 5752 5757 5762 5767 5772 5776 5779 5782 5784 5786 5787 5789 5790 5791 5792 5793 5793 5793 5794 5794 5793 5792 5791 5789 5787
5630 5638 5645 5652 5659 5666 5672 5677 5683 5689 5696 5701 5707 5712 5718 5724 5730 5736 5741 5746 5751 5756 5760 5765 5768 5771 5774 5776 5778 5780 5781 5782 5783 5784 5784 5785 5785 5785 5785 5784 5783 5782 5780 5778
5631 5638 5644 5651 5657 5663 5669 5674 5679 5685 5691 5695 5701 5706 5712 5718 5724 5730 5735 5740 5745 5749 5753 5757 5760 5763 5766 5768 5770 5771 5773 5774 5775 5776 5776 5776 5776 5776 5775 5774 5773 5772 5770 5768
5632 5638 5644 5649 5655 5660 5666 5671 5676 5680 5685 5691 5697 5701 5706 5712 5719 5724 5729 5733 5737 5742 5745 5749 5752 5755 5758 5760 5762 5763 5765 5766 5767 5767 5767 5767 5767 5766 5765 5764 5763 5761 5759 5757
5632 5638 5643 5648 5653 5658 5663 5669 5673 5676 5680 5687 5692 5696 5700 5706 5713 5718 5722 5726 5730 5734 5738 5741 5744 5747 5749 5751 5753 5755 5756 5757 5757 5758 5758 5758 5757 5756 5755 5754 5753 5751 5749 5746
5633 5638 5643 5647 5652 5656 5661 5666 5671 5674 5678 5683 5687 5690 5695 5701 5706 5711 5715 5719 5723 5727 5730 5733 5736 5738 5741 5743 5744 5746 5747 5748 5748 5748 5748 5748 5748 5747 5746 5744 5742 5740 5738 5735
5634 5638 5642 5646 5650 5655 5658 5662 5667 5671 5674 5678 5682 5685 5691 5695 5699 5704 5708 5712 5715 5719 5722 5725 5727 5730 5732 5734 5735 5736 5738 5738 5739 5739 5739 5738 5738 5737 5736 5734 5732 5730 5727 5724
5635 5638 5641 5645 5649 5652 5656 5659 5663 5667 5670 5674 5678 5681 5686 5690 5693 5697 5701 5705 5708 5711 5714 5717 5719 5722 5723 5725 5726 5728 5729 5729 5729 5730 5729 5729 5728 5727 5726 5724 5722 5719 5716 5712
5635 5638 5641 5644 5647 5650 5654 5657 5660 5663 5667 5670 5673 5677 5680 5684 5687 5690 5694 5697 5700 5703 5706 5709 5711 5713 5715 5717 5718 5719 5720 5720 5720 5720 5720 5720 5719 5717 5716 5714 5711 5708 5705 5701
5635 5638 5640 5643 5646 5648 5651 5654 5657 5661 5663 5666 5668 5674 5675 5678 5681 5684 5687 5690 5693 5696 5698 5701 5703 5705 5707 5708 5710 5711 5711 5712 5712 5712 5711 5710 5709 5708 5706 5704 5701 5698 5695 5691
5634 5637 5639 5641 5645 5647 5649 5651 5654 5657 5659 5662 5665 5670 5670 5672 5675 5678 5681 5684 5686 5689 5692 5694 5696 5698 5699 5701 5702 5703 5703 5703 5703 5703 5703 5702 5701 5699 5697 5695 5692 5689 5685 5681
5633 5635 5638 5640 5642 5644 5646 5648 5650 5653 5656 5658 5661 5663 5665 5667 5670 5673 5675 5678 5680 5683 5685 5687 5689 5691 5692 5694 5694 5695 5695 5695 5695 5695 5694 5694 5692 5691 5689 5686 5684 5680 5676 5672
5631 5633 5634 5636 5638 5641 5643 5645 5647 5649 5652 5654 5657 5659 5661 5663 5666 5668 5670 5673 5675 5677 5679 5681 5683 5684 5686 5686 5687 5688 5688 5688 5688 5687 5687 5686 5685 5683 5681 5679 5676 5672 5668 5664
5629 5631 5632 5634 5635 5637 5639 5642 5644 5646 5648 5650 5652 5655 5657 5659 5662 5664 5666 5668 5670 5672 5673 5675 5676 5678 5679 5680 5680 5681 5681 5681 5680 5680 5680 5679 5678 5676 5674 5672 5668 5665 5661 5657
5626 5628 5629 5631 5632 5634 5637 5639 5640 5642 5644 5646 5649 5652 5653 5656 5658 5660 5661 5663 5665 5666 5668 5669 5670 5671 5672 5673 5673 5674 5674 5674 5674 5673 5673 5672 5671 5669 5667 5665 5662 5658 5654 5650
5624 5625 5626 5628 5630 5631 5636 5635 5637 5639 5641 5643 5645 5647 5649 5651 5653 5655 5656 5658 5659 5661 5662 5663 5664 5665 5666 5667 5667 5667 5667 5667 5667 5667 5667 5666 5664 5663 5661 5658 5655 5652 5648 5644
5620 5622 5623 5625 5626 5628 5631 5632 5633 5635 5637 5639 5641 5643 5645 5647 5648 5650 5651 5653 5654 5656 5657 5658 5659 5660 5660 5661 5661 5661 5661 5661 5661 5661 5660 5659 5658 5656 5654 5652 5649 5646 5642 5638
5617 5618 5620 5621 5622 5625 5628 5628 5629 5632 5634 5636 5637 5639 5640 5642 5644 5646 5646 5648 5649 5650 5651 5652 5653 5654 5655 5655 5655 5655 5655 5655 5655 5655 5654 5653 5652 5650 5648 5646 5643 5640 5637 5633
5613 5615 5616 5617 5618 5621 5624 5624 5626 5629 5631 5632 5632 5634 5636 5637 5639 5641 5641 5643 5644 5645 5646 5647 5648 5649 5649 5650 5650 5650 5650 5650 5649 5649 5648 5647 5646 5644 5642 5640 5637 5634 5631 5628
5609 5610 5612 5613 5615 5619 5619 5620 5622 5624 5625 5627 5628 5629 5631 5632 5634 5635 5637 5638 5639 5640 5641 5642 5643 5643 5644 5644 5645 5644 5644 5644 5643 5643 5642 5641 5640 5638 5636 5634 5632 5629 5626 5623
5604 5606 5607 5609 5613 5613 5614 5615 5617 5619 5620 5622 5623 5625 5626 5628 5629 5630 5632 5633 5634 5635 5636 5637 5638 5638 5639 5639 5639 5639 5639 5638 5638 5637 5636 5635 5634 5633 5631 5629 5626 5624 5621 5618
5599 5600 5602 5603 5605 5607 5608 5610 5612 5614 5615 5617 5619 5620 5621 5623 5624 5625 5627 5628 5629 5630 5631 5632 5632 5633 5633 5634 5634 5634 5633 5633 5632 5632 5631 5630 5629 5627 5625 5623 5621 5618 5615 5612
5593 5594 5596 5597 5600 5601 5603 5605 5606 5608 5610 5612 5613 5615 5616 5618 5619 5620 5622 5623 5624 5625 5626 5627 5627 5628 5628 5628 5628 5628 5628 5627 5627 5626 5625 5624 5623 5621 5620 5617 5615 5612 5610 5606
5587 5588 5590 5592 5594 5595 5597 5599 5600 5602 5604 5606 5608 5609 5611 5612 5614 5615 5616 5618 5619 5620 5620 5621 5622 5622 5623 5623 5623 5623 5622 5622 5621 5620 5620 5618 5617 5616 5614 5612 5609 5606 5603 5600
Wind_Speed
39 40 40 40 40 40 41 41 42 44 45 44 44 45 46 46 45 44 43 43 42 41 41 40 40 39 38 38 38 38 37 37 38 38 38 38 37 38 38 39 40 40 41 42
37 37 37 38 38 39 40 40 41 43 43 42 43 44 45 46 44 44 44 43 43 42 41 40 39 38 38 38 38 39 39 39 39 39 40 40 40 40 40 41 42 43 44 45
34 33 34 36 37 37 36 38 40 42 41 41 42 42 43 44 43 43 44 43 43 42 41 39 39 38 38 38 39 39 39 39 39 40 41 41 41 41 42 43 44 44 46 46
30 31 31 32 35 35 36 36 38 39 38 39 40 41 42 42 42 42 43 43 42 42 41 40 39 38 38 38 38 38 38 39 39 40 41 42 42 43 43 44 45 45 46 47
29 28 28 29 31 33 34 35 36 37 37 38 39 40 41 40 40 40 41 42 41 41 40 39 39 38 38 38 38 38 38 38 39 40 41 42 43 43 44 45 45 46 47 48
26 26 26 28 30 31 32 33 35 35 36 37 36 37 40 39 38 39 39 40 40 40 39 38 38 38 37 37 37 38 38 38 39 40 41 41 42 43 44 45 46 46 47 48
23 25 25 26 27 29 31 31 32 34 35 35 34 35 38 39 37 37 37 38 38 38 39 39 38 38 38 37 38 38 38 38 39 39 40 41 41 42 43 44 45 45 46 47
21 23 25 25 25 27 27 29 31 31 32 33 33 34 36 36 35 35 36 36 36 37 37 38 37 37 37 38 38 37 37 38 38 38 39 40 40 41 41 42 43 44 45 47
19 21 23 23 23 25 26 26 29 29 29 30 32 32 33 33 33 33 34 35 35 36 36 36 36 37 37 37 37 37 37 37 37 38 38 39 39 39 40 40 41 43 44 45
17 18 20 22 23 24 23 23 25 28 28 28 29 30 31 31 31 32 33 33 34 34 35 35 35 36 36 36 36 36 36 36 36 37 37 37 37 37 38 39 40 41 42 43
15 16 18 20 21 23 23 23 25 25 27 26 26 29 29 29 30 31 32 32 33 34 34 35 35 35 35 35 35 35 35 35 35 35 35 35 35 36 36 37 37 38 40 42
15 16 17 18 19 20 21 22 23 24 25 25 26 27 25 26 27 28 29 30 32 33 33 34 34 34 34 34 34 34 34 34 34 34 33 33 33 33 34 35 35 36 37 38
14 15 16 17 18 19 19 20 22 23 23 23 24 25 23 24 25 26 27 28 29 30 31 32 32 32 32 32 32 32 32 32 31 31 31 31 31 32 32 32 32 33 34 35
14 15 16 16 16 17 19 19 21 22 22 22 24 23 22 22 24 24 25 26 27 28 28 29 29 29 29 29 29 29 29 29 29 29 29 29 29 29 29 29 30 31 32 32
15 15 16 16 16 17 18 19 20 20 21 22 22 22 21 21 21 22 23 24 25 26 26 26 26 26 26 26 27 27 27 27 27 27 27 27 27 27 27 27 28 29 30 30
15 15 16 16 17 18 19 19 19 20 20 20 21 21 21 20 20 21 21 22 23 24 24 24 24 24 25 25 25 25 25 25 25 25 25 25 25 25 25 26 27 28 28 29
14 15 16 16 17 18 17 18 18 18 19 21 20 20 20 19 19 20 21 21 22 22 23 23 23 23 23 23 23 23 24 24 23 23 22 23 23 24 25 25 26 26 27 28
14 15 16 16 16 17 16 17 18 18 18 19 19 19 19 18 19 19 20 21 21 21 21 21 21 21 21 21 21 21 21 22 22 22 22 22 23 23 24 24 25 25 26 26
15 15 15 16 17 16 16 16 17 18 18 18 18 19 19 19 19 20 20 20 20 20 20 20 20 20 20 20 20 20 20 21 21 21 22 22 22 23 23 24 24 24 25 25
17 16 16 16 17 16 15 17 18 18 19 18 18 19 19 19 19 19 19 19 19 19 18 18 18 18 19 19 19 19 19 20 20 21 21 21 22 22 23 23 23 23 23 23
19 19 18 18 17 16 16 17 18 18 17 18 18 19 19 19 19 19 18 18 18 18 17 17 18 18 18 18 18 18 18 19 20 20 21 21 21 21 21 22 22 22 22 22
19 20 20 20 19 17 17 18 18 18 17 18 18 19 19 19 19 19 19 18 18 17 17 17 17 17 17 17 17 18 18 18 19 19 20 20 20 20 20 21 21 21 21 21
19 20 21 21 20 19 19 19 19 18 18 18 18 19 19 19 19 19 19 18 18 18 18 17 17 17 17 18 18 18 18 18 19 19 19 19 19 19 20 20 20 21 21 21
20 20 21 21 21 21 21 21 21 21 20 19 19 19 19 19 19 19 19 18 18 18 18 18 17 17 18 18 18 19 18 18 18 18 18 19 19 20 20 20 21 21 21 22
22 21 21 21 22 22 22 22 22 22 22 21 21 20 20 20 20 20 20 19 19 19 18 18 18 18 18 18 18 18 18 18 18 19 19 19 20 20 21 21 22 22 23 23
23 23 22 22 22 22 22 23 23 23 23 22 22 22 21 21 21 21 20 20 20 20 19 19 19 18 18 18 18 18 18 18 19 19 20 20 21 21 22 22 23 24 24 25
Wind_Direction
198 203 206 209 211 214 217 219 222 224 224 224 225 225 226 226 226 227 229 231 234 236 238 239 241 244 246 249 251 254 257 259 262 265 267 269 271 273 276 279 282 283 284 284
196 201 204 207 209 212 216 219 221 223 224 224 226 226 228 228 227 228 230 232 235 236 239 241 243 245 247 249 252 255 257 259 262 264 266 268 270 272 275 277 280 281 282 282
194 198 202 206 208 211 215 219 221 223 223 225 227 228 229 230 229 229 231 234 237 238 240 242 244 246 249 251 252 255 257 259 261 263 265 268 270 273 275 276 278 279 281 282
190 196 200 204 207 211 216 219 220 223 223 226 227 229 230 231 231 232 233 235 238 240 242 244 246 248 250 252 253 255 257 259 261 263 266 269 271 273 275 276 277 278 279 280
186 192 197 202 208 212 216 218 221 222 224 226 226 230 230 230 232 233 235 236 238 241 243 245 247 249 251 253 254 256 258 260 262 264 266 269 272 274 275 276 278 278 279 280
185 189 195 202 207 212 215 218 221 223 225 227 227 231 233 232 232 234 236 238 239 241 244 246 248 250 252 254 256 258 259 261 263 265 267 270 272 274 275 276 278 279 280 281
187 193 195 200 206 211 215 218 219 222 225 228 229 232 235 234 232 234 237 238 240 242 244 246 249 251 253 255 257 259 261 263 265 267 269 271 272 274 275 277 278 280 281 282
189 195 199 202 207 209 214 218 220 223 227 229 231 234 236 237 235 236 237 239 240 242 244 247 249 252 254 256 258 260 262 264 266 268 270 271 273 275 276 278 280 281 283 284
193 195 199 203 206 210 215 218 221 224 228 231 232 235 237 238 238 237 237 239 241 243 245 247 250 252 254 256 258 260 263 265 266 268 270 272 274 276 277 280 282 284 285 286
195 198 203 204 208 213 217 221 222 224 229 235 238 238 237 238 240 239 238 240 241 243 244 246 249 251 253 256 258 260 263 265 267 269 271 273 275 277 279 282 285 286 288 290
202 202 204 208 212 215 218 221 224 227 231 234 239 240 237 237 238 238 238 239 240 241 243 245 248 251 253 256 258 261 263 265 268 270 272 274 277 279 282 285 287 290 292 293
213 213 212 213 216 218 221 223 223 225 229 233 238 243 240 238 238 238 237 237 238 240 242 244 247 249 252 255 258 261 263 266 269 271 273 276 278 281 285 288 291 292 294 296
218 220 220 220 220 222 224 227 227 228 231 233 237 241 239 238 237 237 237 237 239 241 243 245 247 250 253 256 259 262 265 268 270 272 274 276 280 284 287 290 292 294 297 300
222 224 227 228 226 226 227 229 230 232 232 234 237 240 240 238 237 237 238 239 240 242 244 247 249 252 255 258 261 264 266 269 271 273 274 277 282 285 288 290 293 297 300 303
230 230 231 232 230 229 230 232 233 234 234 234 235 238 239 239 238 239 239 241 242 244 247 250 253 255 258 260 263 265 267 269 271 273 275 278 282 284 287 291 296 299 302 306
235 235 235 235 234 235 235 234 235 236 235 236 235 237 238 238 238 239 241 243 246 248 250 252 255 257 259 261 263 266 268 270 272 273 275 278 280 284 288 293 299 301 303 306
240 240 239 238 238 237 235 236 236 236 235 235 234 234 237 238 239 240 243 246 248 250 251 252 255 257 259 262 264 267 268 269 270 272 275 278 281 285 290 295 299 302 304 307
242 243 241 239 238 237 236 235 236 235 235 236 234 235 238 240 242 244 246 247 248 249 250 252 254 256 259 262 265 267 268 268 268 270 275 279 283 286 291 295 299 302 305 308
244 244 242 241 240 238 237 237 238 237 237 237 237 240 242 244 246 247 248 248 248 248 250 252 254 257 260 264 267 268 269 268 268 270 276 281 283 286 291 295 299 302 305 308
246 246 246 245 244 242 239 240 241 240 240 240 242 244 245 245 247 248 248 248 248 248 250 253 255 258 262 264 266 269 269 269 270 273 279 282 284 287 291 295 298 302 305 309
246 247 248 248 248 246 243 243 242 242 243 243 244 245 245 246 247 248 248 247 247 248 251 253 257 260 264 266 267 270 272 273 274 276 280 283 285 288 292 295 298 302 306 308
246 247 248 250 250 248 246 245 245 247 246 245 245 245 246 247 247 248 248 247 248 250 253 256 259 261 264 266 269 272 275 276 277 279 281 283 286 289 292 296 298 302 305 307
248 249 249 250 251 249 247 246 246 246 246 246 246 246 246 246 248 248 247 247 249 252 256 257 260 262 264 267 270 274 276 277 278 280 283 284 287 290 294 296 299 302 305 307
249 250 250 249 249 248 247 246 246 246 246 246 246 246 246 247 248 248 248 250 252 255 257 258 261 263 266 269 272 273 275 277 278 281 283 285 288 291 295 297 299 302 304 306
249 250 250 249 249 248 247 247 246 245 244 245 247 248 248 248 249 249 250 251 254 256 257 259 261 264 266 269 272 274 275 277 279 281 283 285 288 292 294 297 299 302 304 306
248 248 248 248 249 249 248 247 246 246 245 245 245 247 248 248 248 249 250 252 255 256 258 260 262 264 267 269 272 275 277 278 279 281 283 284 287 290 294 297 299 302 304 305